Theta_e
363 355 354 356 353 352 350 352 356 364 365 361 363 362 361 359 358 362 359 360 365 355
362 359 355 355 358 353 358 353 359 363 361 361 362 363 364 361 359 363 361 362 361 357
360 360 361 359 358 363 362 359 360 360 360 361 362 364 367 361 364 362 357 355 363 361
364 360 359 357 358 358 361 363 360 362 359 362 361 362 367 365 355 360 362 360 359 360
362 360 359 358 358 358 361 362 362 362 359 361 363 362 359 360 355 360 358 358 358 357
360 359 357 357 361 359 361 360 360 364 364 363 363 360 360 359 358 358 358 357 356 355
361 360 358 361 364 360 364 362 365 365 366 363 361 361 360 361 361 360 358 358 357 357
368 368 367 366 367 366 365 364 365 364 364 362 360 357 363 359 359 361 358 359 360 360
370 368 366 364 366 362 362 362 366 364 364 361 356 345 342 351 355 360 361 359 360 364
367 366 367 364 366 364 364 365 366 365 364 363 364 342 342 345 355 356 360 363 360 358
367 366 366 365 366 367 366 366 366 366 367 365 362 332 337 344 360 360 361 361 361 362
369 367 366 365 366 366 367 367 367 367 368 365 361 326 327 338 357 357 359 359 359 356
370 372 368 370 370 371 367 366 360 361 366 355 350 321 321 330 351 352 347 350 352 333
371 372 373 373 371 370 367 365 367 367 367 365 355 331 318 318 339 341 338 334 333 333
Wind_Speed
12 9 7 9 7 8 9 8 9 10 10 9 7 7 6 6 6 5 4 6 5 8
11 11 10 10 10 6 7 9 6 10 8 9 8 7 6 4 7 7 5 6 6 6
11 12 12 9 9 9 4 10 7 9 9 8 8 7 5 7 9 6 6 8 6 4
11 14 12 10 11 10 9 8 7 6 6 8 9 8 6 5 4 5 6 7 5 7
13 12 13 11 10 13 10 9 9 9 9 9 9 6 7 7 9 9 7 8 8 7
14 14 13 13 10 12 11 11 12 10 7 10 7 8 8 8 9 8 9 9 8 9
13 13 13 12 11 12 11 11 10 7 9 11 10 9 9 9 9 9 10 9 10 10
10 10 11 8 9 9 9 10 12 11 12 10 9 10 11 10 10 9 10 10 10 11
9 10 10 9 9 9 9 10 12 11 11 10 10 5 7 7 9 8 8 8 10 11
11 11 10 11 11 12 13 13 12 12 12 12 11 3 7 8 9 10 10 9 9 10
12 12 12 12 12 11 11 11 10 11 11 10 8 8 8 6 9 10 11 11 11 10
13 13 13 13 12 12 10 10 11 10 11 10 7 6 2 3 8 10 10 7 8 9
13 13 14 13 12 11 11 11 11 12 11 7 10 8 3 5 6 7 6 6 6 8
12 13 13 12 11 11 12 11 11 11 8 9 11 9 8 4 4 5 5 5 5 7
Wind_Direction
201 197 209 219 213 212 193 196 219 195 216 212 216 216 235 243 257 235 222 222 251 294
196 207 203 220 216 242 202 178 193 187 201 228 229 234 235 256 260 263 239 242 227 250
190 201 220 203 199 245 228 165 202 193 218 224 225 228 210 227 231 226 234 240 169 234
187 200 212 213 192 222 240 203 226 216 218 242 241 215 221 246 286 217 252 279 247 227
196 200 189 219 202 192 224 219 219 224 217 224 232 223 215 215 257 213 217 235 245 257
197 198 193 199 219 200 198 220 219 220 228 247 241 216 230 234 242 252 250 250 260 260
205 204 208 205 199 206 194 207 227 223 226 242 219 223 233 243 240 254 262 265 271 270
200 211 205 215 196 211 219 212 205 213 226 225 232 232 220 240 260 252 260 265 264 257
204 209 215 198 199 201 201 213 218 215 219 216 239 235 197 229 265 251 256 278 275 264
202 206 208 202 200 201 203 213 208 214 218 222 230 165 181 185 236 252 256 251 259 272
198 204 203 201 207 210 211 215 214 215 221 225 222 137 156 175 237 246 256 262 271 268
197 198 200 203 201 203 207 212 215 217 218 219 153 87 79 220 241 238 236 266 296 305
213 201 199 201 200 200 200 208 211 210 213 202 134 142 159 250 258 258 261 273 258 238
217 217 205 199 197 197 203 209 209 208 196 164 163 160 166 140 235 263 286 284 293 68